NWS Melbourne » East Central Florida Hourly Weather Roundup

ASUS42 KMLB 041212
RWRMLB
HOURLY WEATHER ROUNDUP AROUND FLORIDA
NATIONAL WEATHER SERVICE OFFICE MELBOURNE FL
700 AM EST WED MAR 04 2015
  
CITY           SKY/WX    TMP DP  RH WIND       PRES   REMARKS
MELBOURNE      CLEAR     68  66  93 CALM      30.15R                  
FORT PIERCE    PTCLDY    61  60  97 CALM      30.14R FOG              
ORLANDO INTL   PTCLDY    66  66 100 SE3       30.15R                  
DAYTONA BEACH  PTCLDY    65  64  97 CALM      30.15R FOG              
VERO BEACH     PTCLDY    63  61  93 CALM      30.14S                  
$$
...ELSEWHERE ACROSS CENTRAL FLORIDA...
  
CITY           SKY/WX    TMP DP  RH WIND       PRES   REMARKS
PATRICK AFB    CLEAR     68  68 100 S6        30.14R                  
KSC            FOG       65  64  96 S1        30.14R VSB 1/2          
CAPE CANAVERAL CLEAR     66  65  96 S5        30.14R                  
TITUSVILLE     MOCLDY    63  63 100 S6        30.15  FOG              
ORLANDO EXEC   CLEAR     65  64  97 SE3       30.15R                  
LEESBURG       FOG       64  63  96 CALM      30.15R VSB 1/2          
THE VILLAGES   FOG       64  64 100 CALM      30.05R VSB 0            
SANFORD        FOG       65  64  97 S3        30.14R VSB 1/4          
DELAND         CLOUDY   N/A N/A N/A CALM      30.15R                  
NEW SMYRNA BCH PTCLDY    63  63 100 S6        30.15  FOG              
ORMOND BEACH   CLEAR     64  63  94 CALM      30.14  FOG              
WINTER HAVEN   CLEAR     65  64  97 E5        30.16R FOG              
KISSIMMEE      CLEAR     64  64 100 CALM      30.15                   
OKEECHOBEE     CLEAR     63  63 100 E3        30.14R                  
TAMPA          CLEAR     68  64  87 CALM      30.14R                  
$$
...NORTHERN FLORIDA...
  
CITY           SKY/WX    TMP DP  RH WIND       PRES   REMARKS
PALM COAST     FOG       63  63 100 CALM      30.15R VSB 1            
ST AUGUSTINE   FOG       65  65 100 SW5       30.16R VSB 1/4          
OCALA          CLOUDY    63  61  94 CALM      30.15R VSB 1/4          
GAINESVILLE    FOG       60  60 100 CALM      30.14R VSB<1/4          
JACKSONVILLE   PTCLDY    64  64 100 S6        30.13R                  
TALLAHASSEE    FOG       63  61  93 CALM      30.11S VSB 1/4          
$$
...ALONG THE SOUTHEAST COAST TO THE KEYS...
  
CITY           SKY/WX    TMP DP  RH WIND       PRES   REMARKS
STUART         PTCLDY    68  64  88 CALM      30.15R                  
WEST PALM BCH  NOT AVBL                                               
MIAMI          PTCLDY    74  66  76 SE9       30.13R                  
KEY WEST       CLEAR     75  71  87 E14       30.10R                  
$$
...MARINE REPORTS...
  
STATION/POSITION TIME  TEMP    WIND        PRES    WAVE   SWELL
                       AIR SEA DIR/SP/G            HT/PER HT/PER/DIR
                 (UTC) (F)     (DEG/KT/KT) (MB)    (FT/S) (FT/S/D)
ST AUGUSTINE FP  1200   60     250/  1/  2 1021.5R
20NM E CAPE CANA 1120   73 72  150/ 12/ 14 1020.5R
120 E NEW SMYRNA 1120   73 74  170/ 12/ 14 1021.6R
TRIDENT PIER     1100   67 67  150/  1/  2 1020.7R
SEBASTIAN INLET  1200   70     170/  5     1022.0R
4NM E PORT CANAV 1139      66                N/A     3/ 5
6NM NE FPR INLET 1125      73                N/A     3/ 5
SETTLEMENT PT GB 1200   73     120/  7/  9 1021.6R
$$
 


USA.gov is the U.S. government's official web portal to all federal, state and local government web resources and services.